If you wish to contribute or participate in the discussions about articles you are invited to join SKYbrary as a registered user

 Actions

Antwerp

From SKYbrary Wiki

EBAW
Airport
ICAO: EBAW – IATA: ANR
Summary
Name Antwerp
Region Europe
Territory Belgium BE.gif
Location Deurne, Antwerpen
Serving Antwerpen
Elevation 11.887 m
39 ft
39 ft11.887 m
Coordinates 51° 11' 22.56" N, 4° 27' 44.00" E
Runways
Designator Length Width Surface ROPS
11/29 1510 m4,954.068 ft
45 m147.638 ft
ASP yes/yes


METAR
Observation EBAW 182050Z 16010KT CAVOK 07/01 Q1010 NOSIG
Station Antwerpen / Deurne
Date/Time 18 December 2018 20:50:00
Wind direction 160°
Wind speed 10 kts
Lowest cloud amount clouds and visibility OK
Temperature 7°C
Dew point 1°C
Humidity 65%
QNH 1010 hPa
Weather condition n/a

Antwerpen International Airport

ICAO: EBAW IATA: ANR

Description

Antwerpen International Airport is located 2 km1.08 nm
2,000 m
6,561.68 ft
from the city of Antwerp, Belgium.

Climatology

Temperate Marine climate/Oceanic climate (Köppen climate classification Cfb) - Moderately cool summer and comparatively warm winter.

Maps

Terrain

Loading map...

Airport Layout

Loading map...


Accidents & Serious Incidents at or in vicinity of EBAW

None on SKYbrary